[[{"header":{"parameterUnit":"m.s-1","parameterCategory":1,"la1":30.2991,"la2":30.254,"lo1":-89.0895,"lo2":-89.0444,"dy":0.0017,"dx":0.0017,"nx":28,"ny":28,"refTime":"2024-04-27T03:00:00:Z","depth":0,"parameterNumber":2,"parameterNumberName":"U-component_of_WINDS"},"data":[0,0,0,0,0,0,0,0,0,0,0,0,0,0,0,0,0,0,0,0,0,0,0,0,0,0,0,0,0,0,0,0,0,0,0,0,0,0,0,0,0,0,0,0,0,0,0,0,0,0,0,0,0,0,0,0,0,0,-7.1029,-7.103,0,-7.1112,-7.1112,-7.1113,-7.1056,-7.1053,-7.1051,-7.1048,-7.1129,-7.1133,-7.1138,0,0,0,0,0,0,0,0,0,0,0,0,0,-7.0817,-7.0821,-7.1029,-7.103,-7.1031,-7.1111,-7.1112,-7.1114,-7.1057,-7.1053,-7.105,-7.1047,-7.1127,-7.1133,-7.1138,0,0,0,0,0,0,0,0,0,0,0,0,0,-7.0905,-7.0823,-7.1028,-7.1012,-7.1011,-7.1111,-7.1113,-7.1114,-7.1057,-7.1053,-7.1049,-7.1046,-7.1126,-7.1132,-7.1139,-7.1258,0,0,-7.116,-7.1163,0,0,0,0,0,0,0,0,-7.09,-7.0913,-7.1013,-7.1013,-7.1013,-7.107,-7.1067,-7.1162,-7.1058,-7.104,-7.1048,-7.1044,-7.1112,-7.112,-7.1143,-7.1262,-7.1265,-7.116,-7.1164,-7.1167,-7.1169,0,0,0,0,0,0,0,-7.0894,-7.0909,-7.1061,-7.1015,-7.1015,-7.0999,-7.1008,-7.1085,-7.1096,-7.1041,-7.1037,-7.1048,-7.1111,-7.1137,-7.1145,-7.1266,-7.116,-7.1166,-7.117,-7.1173,-7.1485,-7.1489,0,0,0,0,0,0,-7.089,-7.0904,-7.1059,-7.1064,-7.0946,-7.1006,-7.1015,-7.1055,-7.1095,-7.1098,-7.1051,-7.1045,-7.1127,-7.1137,-7.1147,-7.1288,-7.1167,-7.1174,-7.1177,-7.1481,-7.1486,-7.149,0,0,0,0,0,0,-7.0886,-7.0904,-7.1055,-7.0983,-7.1001,-7.1014,-7.1059,-7.1059,-7.1085,-7.1103,-7.1104,-7.1076,-7.1125,-7.1138,-7.1231,-7.129,-7.1177,-7.1183,-7.1476,-7.1482,-7.1488,-7.157,0,0,0,0,0,0,-7.088,-7.0903,-7.0949,-7.0985,-7.1005,-7.1139,-7.1063,-7.1063,-7.1097,-7.109,-7.1126,-7.1129,-7.1123,-7.1221,-7.1238,-7.1297,-7.1188,-7.147,-7.1479,-7.1486,-7.1562,-7.1578,-7.1592,0,0,0,0,0,-7.0873,-7.0968,-7.0952,-7.0971,-7.1063,-7.1142,-7.1154,-7.1146,-7.1102,-7.1148,-7.116,-7.1128,-7.1282,-7.1231,-7.1249,-7.1312,-7.1467,-7.1476,-7.1485,-7.1555,-7.1575,-7.1592,0,0,0,0,0,0,-7.0938,-7.0973,-7.0955,-7.1065,-7.1101,-7.1132,-7.1189,-7.1167,-7.1215,-7.1206,-7.1194,-7.1202,-7.1299,-7.1315,-7.1258,-7.1428,-7.1367,-7.138,-7.1414,-7.1433,-7.1448,-7.144,-7.1194,0,0,0,0,0,-7.0966,-7.1028,-7.1055,-7.1149,-7.1169,-7.1177,-7.121,-7.1202,-7.1238,-7.1252,-7.1271,-7.1306,-7.1362,-7.1399,-7.1452,-7.1566,-7.1571,-7.1617,-7.1633,-7.1645,-7.1656,-7.1715,-7.1735,-7.1521,-7.1521,-7.1521,0,0,-7.1022,-7.1049,-7.1089,-7.1163,-7.119,-7.1253,-7.1189,-7.1259,-7.1305,-7.1262,-7.135,-7.1366,-7.1404,-7.1508,-7.1555,-7.1524,-7.1717,-7.1657,-7.1667,-7.1671,-7.1727,-7.1747,-7.1765,-7.1528,-7.1527,-7.1526,0,0,-7.1157,-7.1185,-7.1266,-7.1295,-7.1338,-7.1342,-7.1362,-7.1397,-7.1406,-7.1495,-7.1464,-7.1519,-7.1616,-7.1644,-7.1671,-7.1819,-7.1791,-7.1837,-7.1915,-7.1973,-7.199,-7.2005,-7.2055,-7.2073,-7.1848,-7.1849,-7.1849,0,-7.1222,-7.1317,-7.131,-7.1383,-7.1415,-7.1382,-7.1463,-7.1491,-7.1548,-7.1571,-7.1537,-7.1658,-7.1682,-7.1791,-7.1827,-7.1851,-7.1871,-7.1831,-7.1988,-7.2003,-7.2017,-7.2064,-7.2084,-7.1854,-7.1853,-7.1853,-7.1852,0,-7.1393,-7.146,-7.152,-7.1577,-7.1618,-7.1694,-7.1698,-7.1739,-7.1728,-7.1736,-7.1826,-7.1854,-7.1911,-7.1937,-7.1926,-7.2045,-7.2024,-7.199,-7.1927,-7.2042,-7.2087,-7.2105,-7.1861,-7.1859,-7.1858,-7.1856,0,0,-7.1568,-7.1623,-7.1644,-7.167,-7.1715,-7.1765,-7.184,-7.1898,-7.1932,-7.1974,-7.2034,-7.2119,-7.2087,-7.2118,-7.211,-7.2162,-7.2275,-7.2121,-7.2121,-7.2146,-7.2404,-7.2427,-7.2449,-7.2258,-7.2261,-7.2264,-7.24,0,-7.1704,-7.1835,-7.1832,-7.1953,-7.2013,-7.1984,-7.2049,-7.2083,-7.2093,-7.2144,-7.2155,-7.2214,-7.217,-7.2188,-7.2238,-7.225,-7.2326,-7.2241,-7.2311,-7.2314,-7.2299,-7.2472,-7.2497,-7.2623,-7.2417,-7.242,-7.2423,0,-7.1878,-7.1926,-7.2054,-7.209,-7.2115,-7.2174,-7.2226,-7.2277,-7.2315,-7.2318,-7.2354,-7.2338,-7.2413,-7.2351,-7.2452,-7.2395,-7.2424,-7.2435,-7.2439,-7.2442,-7.2373,-7.2477,-7.2664,-7.2682,-7.245,-7.2448,-7.2446,0,-7.199,-7.2087,-7.2175,-7.2198,-7.2243,-7.2285,-7.2305,-7.2339,-7.2374,-7.242,-7.2442,-7.2496,-7.2524,-7.2566,-7.2564,-7.252,-7.2666,-7.2605,-7.2669,-7.2669,-7.2698,-7.2695,-7.2889,-7.2723,-7.2722,-7.2722,-7.2722,0,-7.2139,-7.2218,-7.2226,-7.228,-7.2367,-7.2363,-7.2449,-7.2465,-7.2496,-7.2551,-7.253,-7.2582,-7.2579,-7.2632,-7.2631,-7.2714,-7.2728,-7.2731,-7.2729,-7.2731,-7.273,-7.2747,-7.2737,-7.2727,-7.2726,-7.2725,-7.2724,0,-7.2277,-7.2286,-7.238,-7.2416,-7.2427,-7.2489,-7.2518,-7.2569,-7.2578,-7.2649,-7.2665,-7.2679,-7.274,-7.2744,-7.2815,-7.2814,-7.2914,-7.2904,-7.2901,-7.2898,-7.2961,-7.2953,-7.3169,-7.3196,-7.3015,-7.3017,-7.3019,0,-7.237,-7.243,-7.2472,-7.2509,-7.2532,-7.2591,-7.2627,-7.2625,-7.2663,-7.2711,-7.2756,-7.2815,-7.2862,-7.2961,-7.2976,-7.303,-7.3019,-7.3091,-7.3027,-7.3026,-7.3017,-7.3012,-7.3017,-7.3102,-7.3104,-7.3106,-7.3107,0,-7.2533,-7.2535,-7.2588,-7.2643,-7.2687,-7.273,-7.277,-7.2801,-7.2804,-7.2847,-7.291,-7.2947,-7.302,-7.3078,-7.3131,-7.315,-7.3129,-7.3128,-7.3145,-7.3146,-7.314,-7.3141,-7.2931,-7.3122,-7.3121,-7.312,-7.3119,-7.3118,-7.2649,-7.2701,-7.2739,-7.2798,-7.2829,-7.2867,-7.2916,-7.2932,-7.2985,-7.3044,-7.3041,-7.311,-7.3146,-7.3214,-7.3238,-7.3291,-7.3266,-7.3292,-7.3298,-7.3303,-7.3308,-7.3135,-7.3301,-7.3301,-7.33,-7.33,-7.33,0,-7.2809,-7.2832,-7.2888,-7.2945,-7.2992,-7.2971,-7.3014,-7.3054,-7.3115,-7.3151,-7.3199,-7.327,-7.3327,-7.3348,-7.3403,-7.3442,-7.3433,-7.3456,-7.3451,-7.3456,-7.3329,-7.3307,-7.3462,-7.3462,-7.3462,-7.3462,-7.3462,-7.3462,-7.2897,-7.2982,-7.2989,-7.3089,-7.3111,-7.318,-7.3206,-7.324,-7.3269,-7.3351,-7.3398,-7.3412,-7.3442,-7.3499,-7.355,-7.3555,-7.3574,-7.3601,-7.3601,-7.3481,-7.3465,-7.3449,-7.3428,-7.3606,-7.3606,-7.3723,-7.3724,-7.3725]},{"header":{"parameterUnit":"m.s-1","parameterCategory":1,"la1":30.2991,"la2":30.254,"lo1":-89.0895,"lo2":-89.0444,"dy":0.0017,"dx":0.0017,"nx":28,"ny":28,"refTime":"2024-04-27T03:00:00:Z","depth":0,"parameterNumber":3,"parameterNumberName":"V-component_of_WINDS"},"data":[0,0,0,0,0,0,0,0,0,0,0,0,0,0,0,0,0,0,0,0,0,0,0,0,0,0,0,0,0,0,0,0,0,0,0,0,0,0,0,0,0,0,0,0,0,0,0,0,0,0,0,0,0,0,0,0,0,0,5.5654,5.5654,0,5.5694,5.5694,5.5695,5.5643,5.5641,5.5639,5.5638,5.5675,5.5678,5.5681,0,0,0,0,0,0,0,0,0,0,0,0,0,5.5531,5.5533,5.5654,5.5654,5.5655,5.5694,5.5694,5.5695,5.5644,5.5641,5.5639,5.5637,5.5674,5.5678,5.5681,0,0,0,0,0,0,0,0,0,0,0,0,0,5.5579,5.5534,5.5654,5.5634,5.5633,5.5694,5.5695,5.5695,5.5644,5.5641,5.5638,5.5636,5.5673,5.5677,5.5681,5.5763,0,0,5.5694,5.5696,0,0,0,0,0,0,0,0,5.5576,5.5583,5.5636,5.5636,5.5634,5.5661,5.5665,5.5718,5.5645,5.564,5.5638,5.5634,5.5672,5.5676,5.569,5.5764,5.5766,5.5694,5.5697,5.5698,5.57,0,0,0,0,0,0,0,5.5573,5.5581,5.567,5.5637,5.5636,5.5622,5.5626,5.5674,5.5671,5.564,5.5636,5.5642,5.5671,5.5686,5.5691,5.5767,5.5694,5.5698,5.57,5.5702,5.5911,5.5914,0,0,0,0,0,0,5.5572,5.5579,5.5668,5.5671,5.5598,5.5627,5.5631,5.5655,5.5671,5.567,5.5644,5.5639,5.5681,5.5686,5.5692,5.5789,5.5698,5.5702,5.5705,5.5908,5.5912,5.5915,0,0,0,0,0,0,5.557,5.5581,5.5667,5.5624,5.5634,5.5632,5.5659,5.5657,5.5672,5.5674,5.5673,5.566,5.5679,5.5686,5.5746,5.5789,5.5704,5.5708,5.5905,5.5909,5.5914,5.5983,0,0,0,0,0,0,5.5566,5.558,5.5611,5.5625,5.5636,5.5721,5.5662,5.566,5.568,5.5674,5.5689,5.5688,5.5677,5.574,5.575,5.5793,5.5711,5.5901,5.5907,5.5912,5.5977,5.599,5.6001,0,0,0,0,0,5.5562,5.5628,5.5613,5.5624,5.5676,5.5724,5.573,5.5717,5.5684,5.5715,5.5716,5.5688,5.5783,5.5747,5.5757,5.5803,5.5898,5.5905,5.5912,5.5972,5.5987,5.6,0,0,0,0,0,0,5.5618,5.563,5.5613,5.5686,5.5705,5.5715,5.5754,5.5733,5.5761,5.5754,5.5735,5.5739,5.5803,5.5809,5.5768,5.5883,5.5835,5.5844,5.5877,5.5892,5.5903,5.59,5.5715,0,0,0,0,0,5.5639,5.5678,5.5686,5.5749,5.576,5.5756,5.5776,5.5764,5.5782,5.579,5.5795,5.5813,5.5847,5.587,5.5901,5.5978,5.5981,5.6014,5.6026,5.6036,5.6044,5.6086,5.6102,5.5938,5.5938,5.5938,0,0,5.5682,5.5694,5.5719,5.5761,5.5774,5.5815,5.5762,5.5807,5.5837,5.5796,5.5854,5.5859,5.5877,5.5947,5.5977,5.5953,5.609,5.6045,5.6052,5.6055,5.6095,5.611,5.6124,5.5943,5.5942,5.5941,0,0,5.5782,5.5795,5.585,5.5865,5.5886,5.5883,5.5896,5.591,5.5913,5.5971,5.5941,5.5976,5.6035,5.605,5.6065,5.6173,5.6148,5.6183,5.6244,5.6286,5.6299,5.631,5.6349,5.6363,5.6192,5.6192,5.6192,0,5.5833,5.5894,5.588,5.5928,5.5947,5.5914,5.5969,5.5984,5.6014,5.6028,5.6,5.6075,5.6085,5.6158,5.6184,5.6198,5.6212,5.6181,5.6298,5.6309,5.632,5.6357,5.6371,5.6196,5.6196,5.6195,5.6195,0,5.5956,5.5998,5.604,5.6072,5.6096,5.6147,5.6141,5.6166,5.6153,5.6153,5.6213,5.6224,5.6258,5.6274,5.6261,5.6346,5.633,5.6301,5.6252,5.634,5.6374,5.6388,5.6202,5.6201,5.6199,5.6198,0,0,5.609,5.6116,5.6131,5.6146,5.6168,5.62,5.625,5.6284,5.6307,5.6329,5.637,5.6422,5.6396,5.6413,5.6401,5.6438,5.6523,5.6404,5.6404,5.6426,5.6618,5.664,5.6657,5.6507,5.651,5.6512,5.6617,0,5.6191,5.6279,5.6269,5.6352,5.6392,5.6362,5.6405,5.6423,5.6425,5.6458,5.6459,5.6496,5.6458,5.6469,5.6503,5.6506,5.6562,5.6498,5.6545,5.6547,5.6541,5.6675,5.6698,5.6796,5.663,5.6632,5.6634,0,5.6319,5.6349,5.6437,5.6454,5.647,5.6509,5.6541,5.6573,5.6593,5.6591,5.6612,5.6595,5.6644,5.6595,5.6663,5.662,5.6639,5.6643,5.6647,5.665,5.6596,5.6682,5.6827,5.6842,5.6655,5.6653,5.6652,0,5.641,5.6471,5.6531,5.6545,5.6566,5.6595,5.6605,5.6622,5.6644,5.6671,5.6685,5.6717,5.6735,5.676,5.6751,5.6716,5.6822,5.6772,5.6822,5.6822,5.6845,5.6843,5.6995,5.6857,5.6857,5.6857,5.6856,0,5.6523,5.6578,5.6573,5.661,5.6671,5.6659,5.6719,5.6725,5.6741,5.6779,5.6754,5.679,5.6777,5.6811,5.6805,5.6863,5.6871,5.6871,5.6868,5.6873,5.6873,5.6885,5.6878,5.6861,5.686,5.6859,5.6858,0,5.6634,5.6633,5.6697,5.6713,5.6718,5.6763,5.6776,5.6811,5.6811,5.6859,5.687,5.687,5.691,5.6904,5.6948,5.6944,5.7016,5.7005,5.701,5.7007,5.7058,5.7054,5.7222,5.7244,5.7092,5.7093,5.7095,0,5.6707,5.6749,5.677,5.6794,5.6807,5.6846,5.6869,5.6859,5.6883,5.691,5.6942,5.698,5.701,5.7075,5.7079,5.7112,5.7102,5.7159,5.7107,5.7111,5.7103,5.7101,5.7105,5.7169,5.7171,5.7172,5.7173,0,5.6836,5.6834,5.6868,5.6903,5.6931,5.6958,5.6982,5.7003,5.6995,5.7024,5.7065,5.7088,5.7134,5.7173,5.7205,5.7214,5.7193,5.719,5.7203,5.7209,5.721,5.721,5.7038,5.7186,5.7185,5.7184,5.7183,5.7183,5.693,5.6967,5.6988,5.7027,5.7045,5.7068,5.7102,5.7108,5.7143,5.718,5.7172,5.7219,5.7238,5.7279,5.7292,5.7328,5.7307,5.7327,5.7332,5.7337,5.7343,5.7205,5.7334,5.7334,5.7333,5.7333,5.7333,0,5.7058,5.7071,5.7108,5.7143,5.7174,5.7153,5.7179,5.7206,5.7248,5.7269,5.73,5.7348,5.7385,5.7392,5.7428,5.7455,5.7446,5.7465,5.7463,5.7465,5.7359,5.7345,5.7472,5.7472,5.7472,5.7472,5.7471,5.7471,5.7129,5.719,5.7191,5.726,5.7272,5.7319,5.7336,5.7357,5.7373,5.7429,5.746,5.7465,5.7481,5.7517,5.7551,5.7552,5.7566,5.7588,5.7586,5.7487,5.7473,5.7459,5.7445,5.7592,5.7592,5.7689,5.769,5.769]}]]